Regional Weather Roundup
Issued by NWS

Home | Current Version | Previous Version | Graphics & Text | Print | Product List | Glossary On
Versions: 1 2 3 4 5 6 7 8 9 10 11 12 13 14 15 16 17 18 19 20 21 22 23 24 25 26 27
000
ASUS45 KSLC 251310
RWRUT

UTAH REGIONAL WEATHER ROUNDUP
NATIONAL WEATHER SERVICE SALT LAKE CITY UT
700 AM MDT WED APR 25 2018

UTZ001>011-023>025-251400-

NORTHERN UTAH

CITY           SKY/WX    TMP DP  RH WIND       PRES   REMARKS
BRIGHAM CITY   CLEAR     41  26  54 CALM      30.26R
HILL AFB       CLEAR     43  21  41 E17G23    30.26R
LOGAN          CLEAR     35  28  75 CALM      30.27S
OGDEN          CLEAR     43  23  45 S7        30.25R
SALT LAKE CITY MOCLDY    50  25  37 SE9       30.24S
TOOELE VALLEY  CLEAR     41  30  65 S12       30.25R
WENDOVER       PTCLDY    42  25  50 N5        30.24S
HEBER CITY       N/A     30  23  74 CALM      30.31S
WEST JORDAN    CLEAR     40  30  66 CALM      30.27R

$$

UTZ011>015-024>027-251400-

CENTRAL/NORTHEAST UTAH

CITY           SKY/WX    TMP DP  RH WIND       PRES   REMARKS
PROVO AIRPORT  PTCLDY    39  30  70 CALM      30.28R
MOAB/CANYONLAN CLEAR     45  19  35 VRB3      30.29R
DELTA          PTCLDY    34  28  80 SE3       30.25R
PRICE          CLEAR     38  19  46 NW6       30.30S WCI  33
ROOSEVELT      CLEAR     28  21  74 W3        30.41S
VERNAL         CLEAR     31  21  66 W3        30.39R

$$

UTZ013>016-019>022-027-251400-

SOUTHERN UTAH

CITY           SKY/WX    TMP DP  RH WIND       PRES   REMARKS
BRYCE CANYON   CLEAR     26  18  71 W8        30.33S WCI  18
CEDAR CITY     CLEAR     37  28  70 CALM      30.24S
MILFORD        CLEAR     34  25  69 MISG      30.24R
ST GEORGE      SUNNY     56  26  31 CALM      30.14R
HANKSVILLE     CLEAR     41  18  38 S5        30.33R
BLANDING         N/A     35  15  44 N5        30.32R WCI  30

$$

REGIONAL REPORTS     COLORADO/ARIZONA

CITY           SKY/WX    TMP DP  RH WIND       PRES   REMARKS
CRAIG, CO      CLEAR     22  19  89 E3        30.40F
GRAND JUNCTION CLEAR     39  18  42 CALM      30.33S
RIFLE, CO      CLEAR     29  24  82 CALM      30.39R
MONTROSE, CO   CLEAR     29  20  69 S8        30.38R WCI  21
CORTEZ, CO     CLEAR     31  12  45 E8        30.23R WCI  23
COLORADO CITY    N/A     55  19  24 NE10      30.21S
PAGE, AZ       PTCLDY    57  18  21 NE3       30.22R
GRAND CANYON   CLEAR     51  17  26 E12       30.26R
KINGMAN, AZ    CLEAR     52  19  27 CALM      30.06R
FLAGSTAFF, AZ  CLEAR     49  17  28 E9        30.28R

$$

REGIONAL REPORTS    NEVADA/IDAHO/WYOMING

CITY           SKY/WX    TMP DP  RH WIND       PRES   REMARKS
LAS VEGAS, NV  PTCLDY    72  25  17 E7        30.03R
ELY, NY        CLEAR     27  15  61 S9        30.28F WCI  18
ELKO, NV       PTCLDY    32  21  64 SE3       30.23R
POCATELLO, ID  CLEAR     33  29  85 SW6       30.26R WCI  28
BURLEY, ID     CLEAR     33  30  88 VRB5      30.22S WCI  29
EVANSTON, WY   CLEAR     27  18  69 E7        30.34S WCI  19
ROCK SPRINGS,  CLEAR     23  16  74 E3        30.38R
KEMMERER, WY   CLEAR     27  19  74 N9        30.36S WCI  17

$$




USA.gov is the U.S. government's official web portal to all federal, state and local government web resources and services.